Find Starlink 5699

NORAD ID: 55449 Int'l Des: 2023-015 Owner: SPXS Country: US Constellation: starlink operational
LEOCIRCULAR

Live Position

Loading 3D Globe...

About Starlink 5699

Description loading...

Upcoming Passes

Passes for default location (London). Set your location on the main map for personalized predictions.

Altitude History

Loading altitude history...

Two-Line Element Set

1 55449U 23015A 26122.13289825 .00009474 00000-0 35386-3 0 9991
2 55449 43.0060 27.0585 0002252 214.3635 145.7071 15.27532990179830
Epoch: May 2, 2026 • Age: 5 hours

Current Status

Altitude 486.2 km
Velocity 7.62 km/s
Sub-Earth Point -11.87°S, 35.45°E
Launch Date Feb 2, 2023
Age 3.2 years
Type internet

Technical Details

Classification Payload
Mass 305.00 kg
Dry Mass 290.00 kg
Total Mass 305.00 kg
Length 0.20 m
Diameter 2.80 m
Span 9.00 m
Shape Box + pan
Manufacturer SPXS
Bus Type Starlink
Phase Status In Orbit
Owner/State SPXS/US

Most Searched